Location: Boiro
(42.6475°N, 8.8834°W)
Time: 01:38:31
(UTC+01:00)

Tiros 1 despin weight - Pass Details

Date: 07 December 2021
Orbit: 592 x 641 km, 48.2° (Epoch: 23 January)

Event Time Altitude Azimuth Distance (km) Brightness Sun altitude
Rises 15:26:35 0° 273° (W) 2,837 ? 19.1°
Reaches altitude 10° 15:28:59 10° 280° (W) 1,930 ? 18.9°
Maximum altitude 15:33:11 42° 352° (N) 850 ? 18.5°
Drops below altitude 10° 15:37:23 10° 64° (ENE) 1,922 ? 18.1°
Sets 15:39:46 0° 72° (ENE) 2,825 ? 17.9°
